QPF
0.00 0.01 0.02 0.02 0.02 0.01 0.01 0.00 0.00 0.00 0.00 0.00 0.00 0.00 0.00 0.00 0.00 0.00 0.02 0.03 0.03 0.03 0.02 0.01 0.01 0.01 0.01 0.00 0.00 0.00 0.00 0.00 0.00 0.00 0.01 0.01 0.01 0.01 0.01 0.01 0.01 0.01 0.01 0.01 0.01 0.01 0.01 0.01 0.00
0.00 0.02 0.03 0.03 0.02 0.01 0.00 0.00 0.00 0.00 0.00 0.00 0.00 0.00 0.00 0.00 0.00 0.01 0.02 0.03 0.05 0.04 0.03 0.02 0.02 0.02 0.01 0.01 0.00 0.00 0.00 0.00 0.00 0.00 0.01 0.01 0.02 0.02 0.01 0.01 0.01 0.01 0.01 0.01 0.01 0.01 0.01 0.00 0.00
0.01 0.02 0.05 0.05 0.04 0.01 0.00 0.00 0.00 0.01 0.01 0.01 0.01 0.01 0.01 0.00 0.00 0.02 0.03 0.03 0.06 0.07 0.05 0.03 0.03 0.03 0.03 0.02 0.01 0.01 0.01 0.01 0.01 0.01 0.01 0.02 0.03 0.02 0.02 0.02 0.01 0.01 0.02 0.01 0.01 0.00 0.00 0.00 0.00
0.02 0.03 0.07 0.07 0.04 0.02 0.00 0.00 0.01 0.01 0.01 0.01 0.01 0.01 0.01 0.01 0.01 0.01 0.05 0.05 0.06 0.09 0.09 0.07 0.06 0.05 0.05 0.05 0.04 0.02 0.02 0.01 0.01 0.01 0.01 0.02 0.03 0.02 0.02 0.02 0.01 0.01 0.01 0.01 0.01 0.00 0.00 0.00 0.00
0.02 0.04 0.05 0.06 0.04 0.01 0.00 0.01 0.01 0.02 0.02 0.01 0.02 0.01 0.01 0.02 0.03 0.04 0.04 0.06 0.07 0.09 0.10 0.10 0.09 0.07 0.06 0.06 0.07 0.05 0.04 0.02 0.01 0.01 0.02 0.02 0.03 0.02 0.02 0.02 0.01 0.01 0.01 0.01 0.00 0.00 0.00 0.00 0.00
0.03 0.04 0.04 0.04 0.03 0.01 0.00 0.01 0.02 0.02 0.03 0.03 0.03 0.02 0.02 0.04 0.05 0.07 0.07 0.07 0.06 0.07 0.10 0.12 0.13 0.11 0.08 0.06 0.07 0.07 0.06 0.04 0.02 0.02 0.02 0.03 0.03 0.02 0.01 0.01 0.02 0.01 0.01 0.01 0.01 0.00 0.00 0.00 0.00
0.02 0.03 0.04 0.03 0.02 0.02 0.01 0.01 0.01 0.02 0.03 0.05 0.04 0.03 0.04 0.05 0.07 0.08 0.10 0.09 0.07 0.06 0.09 0.12 0.16 0.15 0.12 0.10 0.08 0.07 0.08 0.07 0.05 0.03 0.03 0.04 0.04 0.03 0.02 0.02 0.02 0.01 0.01 0.01 0.00 0.00 0.00 0.00 0.00
0.02 0.03 0.03 0.03 0.03 0.03 0.01 0.01 0.01 0.03 0.05 0.04 0.04 0.04 0.04 0.06 0.07 0.09 0.11 0.11 0.10 0.08 0.08 0.13 0.19 0.19 0.16 0.13 0.10 0.09 0.08 0.08 0.07 0.06 0.04 0.04 0.03 0.04 0.03 0.02 0.03 0.01 0.01 0.01 0.00 0.00 0.00 0.00 0.00
0.04 0.04 0.03 0.03 0.03 0.03 0.01 0.01 0.01 0.04 0.08 0.05 0.04 0.04 0.05 0.08 0.10 0.10 0.14 0.13 0.13 0.12 0.10 0.11 0.18 0.22 0.19 0.15 0.13 0.11 0.10 0.09 0.08 0.07 0.06 0.05 0.04 0.04 0.03 0.02 0.02 0.01 0.01 0.00 0.00 0.00 0.00 0.00 0.00
0.05 0.04 0.02 0.02 0.02 0.03 0.01 0.01 0.02 0.06 0.10 0.09 0.05 0.04 0.05 0.08 0.13 0.15 0.14 0.19 0.18 0.18 0.14 0.12 0.15 0.21 0.23 0.20 0.15 0.13 0.11 0.10 0.09 0.07 0.07 0.05 0.04 0.03 0.02 0.02 0.03 0.02 0.01 0.01 0.01 0.00 0.00 0.00 0.00
0.03 0.02 0.02 0.02 0.02 0.03 0.01 0.01 0.03 0.05 0.07 0.10 0.06 0.05 0.05 0.08 0.14 0.18 0.15 0.16 0.23 0.25 0.23 0.17 0.17 0.18 0.21 0.23 0.18 0.14 0.11 0.10 0.09 0.08 0.07 0.05 0.05 0.04 0.02 0.02 0.03 0.02 0.01 0.01 0.01 0.00 0.00 0.00 0.00
0.01 0.01 0.02 0.02 0.02 0.03 0.02 0.02 0.03 0.05 0.07 0.10 0.09 0.07 0.07 0.09 0.14 0.19 0.18 0.18 0.23 0.28 0.29 0.24 0.20 0.20 0.19 0.21 0.18 0.14 0.13 0.12 0.10 0.08 0.07 0.06 0.05 0.04 0.02 0.01 0.01 0.01 0.00 0.00 0.00 0.00 0.00 0.00 0.00
0.01 0.02 0.02 0.02 0.02 0.03 0.03 0.03 0.03 0.05 0.09 0.09 0.10 0.10 0.11 0.12 0.18 0.20 0.21 0.21 0.23 0.26 0.28 0.27 0.23 0.20 0.18 0.19 0.18 0.15 0.15 0.14 0.10 0.08 0.07 0.06 0.05 0.03 0.02 0.01 0.01 0.00 0.00 0.00 0.00 0.00 0.00 0.00 0.00
0.02 0.03 0.02 0.02 0.02 0.03 0.04 0.04 0.04 0.06 0.10 0.10 0.11 0.12 0.13 0.14 0.19 0.23 0.19 0.21 0.22 0.24 0.27 0.29 0.25 0.23 0.18 0.17 0.19 0.16 0.15 0.16 0.14 0.12 0.09 0.08 0.06 0.04 0.02 0.02 0.01 0.01 0.01 0.01 0.00 0.00 0.00 0.00 0.00
0.02 0.03 0.03 0.04 0.03 0.03 0.05 0.06 0.05 0.07 0.10 0.14 0.13 0.12 0.12 0.14 0.18 0.21 0.18 0.16 0.21 0.23 0.25 0.29 0.27 0.26 0.22 0.17 0.20 0.19 0.16 0.16 0.15 0.13 0.11 0.10 0.09 0.07 0.04 0.02 0.01 0.01 0.01 0.01 0.01 0.00 0.00 0.00 0.00
0.03 0.04 0.04 0.04 0.03 0.04 0.08 0.09 0.07 0.09 0.10 0.14 0.12 0.12 0.13 0.13 0.16 0.18 0.18 0.14 0.18 0.23 0.23 0.29 0.32 0.29 0.26 0.19 0.19 0.23 0.20 0.18 0.16 0.12 0.11 0.11 0.11 0.09 0.06 0.04 0.02 0.02 0.02 0.01 0.02 0.01 0.01 0.01 0.01
0.04 0.04 0.03 0.04 0.03 0.04 0.07 0.09 0.09 0.09 0.08 0.10 0.10 0.10 0.14 0.15 0.17 0.19 0.19 0.15 0.16 0.25 0.25 0.26 0.36 0.36 0.30 0.27 0.23 0.24 0.25 0.20 0.17 0.14 0.12 0.10 0.11 0.10 0.07 0.05 0.04 0.03 0.03 0.02 0.01 0.01 0.01 0.01 0.01
0.04 0.03 0.03 0.04 0.05 0.05 0.05 0.08 0.08 0.07 0.07 0.07 0.08 0.09 0.13 0.15 0.17 0.20 0.23 0.18 0.16 0.26 0.29 0.23 0.32 0.42 0.35 0.32 0.29 0.29 0.29 0.25 0.20 0.17 0.14 0.10 0.10 0.10 0.08 0.06 0.04 0.04 0.03 0.03 0.02 0.01 0.01 0.01 0.01
0.03 0.03 0.03 0.04 0.04 0.05 0.06 0.06 0.07 0.07 0.06 0.06 0.08 0.10 0.14 0.14 0.14 0.17 0.24 0.23 0.18 0.24 0.31 0.24 0.26 0.39 0.43 0.37 0.33 0.32 0.31 0.26 0.22 0.20 0.17 0.12 0.09 0.10 0.09 0.07 0.05 0.04 0.04 0.03 0.03 0.03 0.02 0.02 0.02
0.02 0.02 0.04 0.05 0.05 0.07 0.06 0.06 0.07 0.07 0.06 0.06 0.07 0.11 0.14 0.11 0.13 0.15 0.21 0.23 0.20 0.27 0.30 0.25 0.24 0.34 0.44 0.38 0.36 0.36 0.33 0.27 0.22 0.22 0.20 0.17 0.11 0.10 0.09 0.07 0.05 0.04 0.04 0.04 0.04 0.04 0.04 0.03 0.04
0.01 0.02 0.03 0.06 0.06 0.06 0.06 0.07 0.06 0.07 0.06 0.07 0.08 0.11 0.13 0.13 0.14 0.15 0.18 0.21 0.19 0.30 0.33 0.29 0.27 0.32 0.42 0.39 0.40 0.43 0.43 0.38 0.28 0.24 0.22 0.18 0.14 0.11 0.09 0.08 0.06 0.04 0.03 0.03 0.03 0.03 0.04 0.04 0.03
0.02 0.03 0.04 0.04 0.05 0.05 0.05 0.08 0.07 0.07 0.09 0.10 0.11 0.12 0.14 0.14 0.15 0.16 0.16 0.20 0.19 0.28 0.33 0.32 0.32 0.34 0.37 0.36 0.38 0.45 0.45 0.41 0.34 0.24 0.21 0.17 0.15 0.13 0.12 0.09 0.08 0.04 0.03 0.03 0.03 0.03 0.03 0.04 0.04
0.03 0.03 0.03 0.03 0.03 0.04 0.04 0.08 0.10 0.10 0.12 0.13 0.16 0.18 0.18 0.15 0.14 0.15 0.15 0.17 0.19 0.23 0.29 0.25 0.29 0.34 0.35 0.32 0.31 0.34 0.39 0.36 0.35 0.33 0.27 0.18 0.15 0.14 0.12 0.11 0.08 0.05 0.03 0.02 0.02 0.03 0.03 0.04 0.04
0.02 0.02 0.02 0.03 0.04 0.06 0.05 0.08 0.10 0.13 0.16 0.17 0.18 0.22 0.23 0.22 0.20 0.17 0.14 0.15 0.16 0.18 0.19 0.17 0.18 0.29 0.34 0.33 0.31 0.30 0.29 0.30 0.31 0.33 0.32 0.23 0.16 0.15 0.12 0.09 0.08 0.06 0.04 0.03 0.03 0.03 0.03 0.03 0.03
0.01 0.03 0.05 0.05 0.05 0.07 0.04 0.05 0.12 0.14 0.17 0.19 0.19 0.21 0.21 0.20 0.20 0.17 0.15 0.14 0.14 0.15 0.16 0.15 0.15 0.24 0.32 0.30 0.28 0.25 0.25 0.24 0.26 0.29 0.29 0.26 0.20 0.17 0.14 0.10 0.08 0.07 0.05 0.03 0.03 0.03 0.03 0.02 0.02
0.02 0.03 0.04 0.04 0.04 0.04 0.03 0.08 0.14 0.14 0.14 0.16 0.18 0.19 0.20 0.22 0.22 0.18 0.15 0.13 0.14 0.15 0.15 0.15 0.17 0.22 0.30 0.27 0.25 0.23 0.24 0.24 0.22 0.24 0.25 0.23 0.22 0.19 0.17 0.15 0.11 0.08 0.06 0.04 0.03 0.03 0.03 0.02 0.03
0.01 0.02 0.02 0.04 0.03 0.02 0.04 0.08 0.11 0.11 0.13 0.15 0.15 0.14 0.16 0.18 0.18 0.17 0.13 0.13 0.15 0.14 0.14 0.16 0.19 0.18 0.22 0.22 0.23 0.24 0.24 0.23 0.19 0.19 0.21 0.19 0.19 0.18 0.17 0.17 0.13 0.10 0.08 0.07 0.05 0.04 0.03 0.03 0.03
0.01 0.01 0.02 0.03 0.02 0.02 0.03 0.06 0.11 0.12 0.12 0.12 0.12 0.11 0.12 0.14 0.14 0.13 0.11 0.10 0.14 0.14 0.12 0.14 0.15 0.15 0.16 0.17 0.19 0.20 0.19 0.20 0.19 0.17 0.17 0.14 0.13 0.14 0.14 0.14 0.14 0.13 0.12 0.10 0.08 0.06 0.05 0.05 0.04
0.01 0.01 0.02 0.02 0.01 0.02 0.02 0.06 0.10 0.11 0.11 0.10 0.11 0.11 0.13 0.15 0.17 0.15 0.14 0.14 0.15 0.14 0.12 0.13 0.12 0.12 0.10 0.12 0.14 0.14 0.14 0.15 0.16 0.18 0.17 0.14 0.10 0.10 0.10 0.10 0.11 0.11 0.12 0.12 0.11 0.09 0.08 0.07 0.06
0.00 0.01 0.01 0.01 0.01 0.01 0.02 0.04 0.06 0.07 0.08 0.08 0.09 0.10 0.11 0.13 0.16 0.17 0.17 0.16 0.14 0.14 0.14 0.15 0.13 0.11 0.09 0.09 0.10 0.10 0.11 0.12 0.12 0.16 0.16 0.17 0.15 0.10 0.09 0.10 0.09 0.09 0.08 0.09 0.09 0.08 0.08 0.08 0.07
MSLP
1014.13 1014.71 1015.43 1016.18 1016.83 1017.27 1017.43 1017.31 1016.92 1016.36 1015.70 1015.04 1014.44 1013.90 1013.42 1012.95 1012.45 1011.89 1011.28 1010.65 1010.05 1009.56 1009.23 1009.10 1009.16 1009.38 1009.68 1010.02 1010.33 1010.58 1010.77 1010.93 1011.10 1011.32 1011.60 1011.96 1012.37 1012.80 1013.23 1013.61 1013.94 1014.22 1014.47 1014.71 1014.97 1015.25 1015.56 1015.88 1016.18
1014.55 1015.20 1015.93 1016.64 1017.18 1017.47 1017.46 1017.15 1016.59 1015.88 1015.13 1014.42 1013.81 1013.30 1012.87 1012.47 1012.05 1011.56 1011.01 1010.44 1009.88 1009.41 1009.10 1008.97 1009.04 1009.27 1009.60 1009.98 1010.34 1010.67 1010.95 1011.19 1011.43 1011.68 1011.97 1012.29 1012.64 1013.00 1013.34 1013.65 1013.93 1014.19 1014.45 1014.73 1015.04 1015.39 1015.76 1016.13 1016.48
1015.08 1015.74 1016.44 1017.05 1017.45 1017.58 1017.40 1016.94 1016.26 1015.48 1014.69 1013.98 1013.39 1012.93 1012.55 1012.20 1011.82 1011.37 1010.85 1010.29 1009.75 1009.29 1008.97 1008.84 1008.91 1009.13 1009.47 1009.87 1010.28 1010.67 1011.02 1011.33 1011.63 1011.92 1012.22 1012.52 1012.82 1013.12 1013.39 1013.64 1013.88 1014.14 1014.42 1014.74 1015.11 1015.52 1015.95 1016.37 1016.77
1015.68 1016.31 1016.92 1017.40 1017.65 1017.62 1017.30 1016.73 1015.99 1015.19 1014.42 1013.76 1013.23 1012.82 1012.49 1012.17 1011.81 1011.36 1010.84 1010.28 1009.74 1009.28 1008.95 1008.80 1008.84 1009.04 1009.36 1009.75 1010.16 1010.56 1010.95 1011.31 1011.64 1011.97 1012.29 1012.60 1012.89 1013.16 1013.40 1013.63 1013.86 1014.12 1014.43 1014.79 1015.21 1015.67 1016.15 1016.62 1017.05
1016.29 1016.85 1017.35 1017.68 1017.78 1017.61 1017.17 1016.54 1015.79 1015.03 1014.33 1013.75 1013.30 1012.95 1012.66 1012.36 1011.99 1011.54 1011.01 1010.45 1009.90 1009.43 1009.10 1008.93 1008.93 1009.08 1009.33 1009.66 1010.02 1010.38 1010.75 1011.11 1011.47 1011.83 1012.18 1012.52 1012.84 1013.13 1013.40 1013.65 1013.91 1014.19 1014.53 1014.92 1015.37 1015.86 1016.37 1016.85 1017.30
1016.84 1017.32 1017.69 1017.88 1017.83 1017.54 1017.03 1016.38 1015.66 1014.97 1014.36 1013.88 1013.52 1013.23 1012.97 1012.68 1012.31 1011.85 1011.32 1010.76 1010.22 1009.76 1009.43 1009.24 1009.19 1009.26 1009.42 1009.64 1009.89 1010.17 1010.47 1010.79 1011.15 1011.53 1011.93 1012.33 1012.71 1013.07 1013.40 1013.72 1014.03 1014.36 1014.73 1015.14 1015.60 1016.09 1016.60 1017.08 1017.52
1017.28 1017.67 1017.92 1017.97 1017.81 1017.42 1016.88 1016.23 1015.57 1014.96 1014.46 1014.08 1013.79 1013.55 1013.31 1013.02 1012.64 1012.18 1011.66 1011.12 1010.62 1010.19 1009.88 1009.68 1009.59 1009.58 1009.62 1009.70 1009.81 1009.96 1010.15 1010.41 1010.74 1011.13 1011.58 1012.06 1012.54 1013.00 1013.43 1013.83 1014.22 1014.60 1015.00 1015.42 1015.88 1016.35 1016.82 1017.27 1017.69
1017.59 1017.89 1018.03 1017.98 1017.71 1017.27 1016.71 1016.09 1015.49 1014.97 1014.56 1014.25 1014.01 1013.80 1013.57 1013.27 1012.89 1012.43 1011.93 1011.44 1010.99 1010.62 1010.35 1010.16 1010.04 1009.95 1009.89 1009.83 1009.79 1009.79 1009.86 1010.03 1010.32 1010.72 1011.21 1011.77 1012.35 1012.92 1013.47 1013.97 1014.44 1014.87 1015.30 1015.72 1016.15 1016.59 1017.01 1017.42 1017.80
1017.78 1018.01 1018.06 1017.92 1017.58 1017.10 1016.52 1015.93 1015.38 1014.93 1014.58 1014.32 1014.11 1013.91 1013.66 1013.35 1012.96 1012.52 1012.05 1011.61 1011.24 1010.94 1010.72 1010.56 1010.43 1010.30 1010.15 1009.97 1009.80 1009.68 1009.63 1009.72 1009.96 1010.35 1010.87 1011.49 1012.16 1012.84 1013.49 1014.09 1014.63 1015.11 1015.56 1015.98 1016.39 1016.78 1017.16 1017.53 1017.88
1017.91 1018.07 1018.05 1017.83 1017.44 1016.92 1016.34 1015.76 1015.24 1014.82 1014.50 1014.25 1014.04 1013.82 1013.55 1013.21 1012.81 1012.38 1011.96 1011.57 1011.27 1011.04 1010.89 1010.78 1010.66 1010.52 1010.32 1010.07 1009.81 1009.59 1009.46 1009.48 1009.67 1010.04 1010.58 1011.25 1011.98 1012.73 1013.46 1014.13 1014.74 1015.27 1015.74 1016.16 1016.55 1016.92 1017.26 1017.59 1017.91
1018.05 1018.15 1018.06 1017.78 1017.33 1016.78 1016.17 1015.58 1015.06 1014.63 1014.29 1014.02 1013.77 1013.52 1013.21 1012.85 1012.44 1012.02 1011.62 1011.29 1011.04 1010.89 1010.80 1010.73 1010.66 1010.53 1010.32 1010.06 1009.77 1009.50 1009.33 1009.30 1009.46 1009.82 1010.35 1011.02 1011.78 1012.58 1013.35 1014.08 1014.72 1015.30 1015.79 1016.23 1016.62 1016.97 1017.30 1017.62 1017.92
1018.26 1018.29 1018.13 1017.79 1017.28 1016.67 1016.01 1015.37 1014.80 1014.32 1013.94 1013.62 1013.32 1013.02 1012.67 1012.28 1011.86 1011.44 1011.07 1010.76 1010.56 1010.45 1010.41 1010.40 1010.37 1010.29 1010.12 1009.89 1009.62 1009.37 1009.20 1009.16 1009.30 1009.63 1010.14 1010.79 1011.55 1012.34 1013.14 1013.89 1014.57 1015.18 1015.71 1016.18 1016.59 1016.96 1017.30 1017.62 1017.92
1018.57 1018.53 1018.29 1017.87 1017.28 1016.58 1015.84 1015.12 1014.47 1013.91 1013.44 1013.04 1012.68 1012.32 1011.94 1011.53 1011.10 1010.68 1010.32 1010.04 1009.85 1009.77 1009.77 1009.80 1009.83 1009.80 1009.71 1009.56 1009.36 1009.16 1009.03 1009.01 1009.14 1009.45 1009.92 1010.53 1011.25 1012.02 1012.81 1013.57 1014.28 1014.93 1015.51 1016.03 1016.48 1016.89 1017.27 1017.60 1017.92
1018.97 1018.85 1018.52 1018.00 1017.30 1016.50 1015.64 1014.80 1014.03 1013.35 1012.78 1012.29 1011.86 1011.45 1011.04 1010.61 1010.18 1009.77 1009.41 1009.14 1008.96 1008.89 1008.91 1008.98 1009.06 1009.11 1009.11 1009.06 1008.96 1008.86 1008.79 1008.80 1008.94 1009.22 1009.65 1010.20 1010.86 1011.60 1012.36 1013.12 1013.86 1014.56 1015.20 1015.78 1016.31 1016.78 1017.20 1017.57 1017.91
1019.40 1019.19 1018.76 1018.13 1017.31 1016.38 1015.39 1014.40 1013.48 1012.67 1011.97 1011.38 1010.87 1010.40 1009.97 1009.54 1009.12 1008.73 1008.38 1008.12 1007.95 1007.89 1007.92 1008.02 1008.15 1008.29 1008.39 1008.44 1008.46 1008.45 1008.46 1008.52 1008.66 1008.92 1009.29 1009.79 1010.39 1011.07 1011.81 1012.58 1013.35 1014.10 1014.81 1015.48 1016.08 1016.62 1017.10 1017.52 1017.88
1019.77 1019.48 1018.95 1018.20 1017.26 1016.19 1015.05 1013.92 1012.84 1011.88 1011.05 1010.34 1009.75 1009.23 1008.77 1008.34 1007.94 1007.56 1007.24 1007.00 1006.84 1006.80 1006.86 1007.00 1007.19 1007.40 1007.60 1007.76 1007.88 1007.97 1008.05 1008.14 1008.29 1008.51 1008.83 1009.27 1009.81 1010.45 1011.17 1011.95 1012.76 1013.57 1014.36 1015.11 1015.80 1016.41 1016.95 1017.41 1017.80
1020.00 1019.62 1019.00 1018.15 1017.11 1015.92 1014.66 1013.39 1012.17 1011.06 1010.09 1009.26 1008.57 1007.98 1007.48 1007.04 1006.65 1006.30 1006.01 1005.80 1005.68 1005.68 1005.77 1005.96 1006.22 1006.51 1006.80 1007.05 1007.26 1007.43 1007.55 1007.67 1007.80 1008.00 1008.27 1008.65 1009.14 1009.75 1010.46 1011.26 1012.11 1012.98 1013.85 1014.68 1015.44 1016.13 1016.72 1017.23 1017.65
1020.01 1019.56 1018.87 1017.96 1016.85 1015.60 1014.25 1012.88 1011.54 1010.30 1009.19 1008.24 1007.43 1006.75 1006.19 1005.71 1005.31 1004.97 1004.72 1004.55 1004.48 1004.53 1004.69 1004.94 1005.28 1005.64 1006.01 1006.34 1006.62 1006.83 1006.98 1007.10 1007.22 1007.38 1007.60 1007.94 1008.39 1008.98 1009.69 1010.51 1011.40 1012.33 1013.26 1014.16 1014.99 1015.74 1016.39 1016.95 1017.41
1019.74 1019.25 1018.54 1017.62 1016.52 1015.25 1013.88 1012.46 1011.06 1009.72 1008.49 1007.40 1006.46 1005.65 1004.99 1004.43 1003.98 1003.64 1003.40 1003.27 1003.26 1003.37 1003.61 1003.94 1004.35 1004.80 1005.23 1005.62 1005.94 1006.17 1006.33 1006.44 1006.54 1006.66 1006.85 1007.15 1007.58 1008.16 1008.88 1009.72 1010.65 1011.62 1012.60 1013.55 1014.43 1015.23 1015.93 1016.53 1017.04
1019.20 1018.71 1018.03 1017.17 1016.13 1014.94 1013.63 1012.24 1010.82 1009.42 1008.10 1006.87 1005.78 1004.82 1004.00 1003.32 1002.78 1002.38 1002.12 1002.01 1002.04 1002.22 1002.53 1002.95 1003.44 1003.94 1004.43 1004.85 1005.19 1005.44 1005.59 1005.68 1005.76 1005.85 1006.03 1006.32 1006.75 1007.33 1008.06 1008.92 1009.87 1010.87 1011.88 1012.85 1013.77 1014.60 1015.33 1015.98 1016.54
1018.43 1017.97 1017.38 1016.65 1015.76 1014.73 1013.56 1012.27 1010.90 1009.50 1008.11 1006.76 1005.50 1004.36 1003.35 1002.49 1001.81 1001.30 1000.98 1000.84 1000.89 1001.11 1001.47 1001.95 1002.49 1003.04 1003.56 1004.00 1004.35 1004.59 1004.74 1004.82 1004.89 1004.99 1005.17 1005.47 1005.91 1006.52 1007.26 1008.14 1009.10 1010.11 1011.12 1012.09 1013.02 1013.86 1014.62 1015.30 1015.92
1017.52 1017.13 1016.67 1016.12 1015.45 1014.64 1013.68 1012.57 1011.32 1009.96 1008.54 1007.10 1005.68 1004.34 1003.12 1002.05 1001.17 1000.51 1000.07 999.86 999.87 1000.08 1000.46 1000.96 1001.52 1002.08 1002.61 1003.05 1003.39 1003.62 1003.77 1003.86 1003.95 1004.08 1004.30 1004.64 1005.13 1005.77 1006.54 1007.42 1008.38 1009.37 1010.36 1011.32 1012.23 1013.07 1013.84 1014.55 1015.20
1016.58 1016.28 1015.99 1015.65 1015.23 1014.69 1013.99 1013.10 1012.02 1010.76 1009.35 1007.85 1006.31 1004.78 1003.34 1002.05 1000.95 1000.09 999.49 999.15 999.07 999.22 999.55 1000.02 1000.55 1001.09 1001.58 1002.00 1002.32 1002.55 1002.71 1002.84 1002.98 1003.18 1003.47 1003.89 1004.44 1005.12 1005.93 1006.82 1007.76 1008.72 1009.68 1010.60 1011.47 1012.28 1013.05 1013.76 1014.45
1015.73 1015.54 1015.40 1015.29 1015.13 1014.86 1014.43 1013.79 1012.91 1011.78 1010.44 1008.92 1007.29 1005.62 1004.00 1002.49 1001.18 1000.11 999.32 998.82 998.59 998.62 998.85 999.21 999.66 1000.12 1000.56 1000.92 1001.21 1001.44 1001.63 1001.81 1002.03 1002.32 1002.72 1003.24 1003.87 1004.62 1005.45 1006.35 1007.27 1008.19 1009.09 1009.96 1010.78 1011.56 1012.31 1013.02 1013.71
1015.08 1014.98 1014.99 1015.07 1015.13 1015.12 1014.94 1014.54 1013.86 1012.89 1011.65 1010.17 1008.51 1006.77 1005.02 1003.35 1001.85 1000.60 999.61 998.93 998.53 998.39 998.45 998.67 998.98 999.32 999.64 999.93 1000.17 1000.39 1000.61 1000.86 1001.17 1001.58 1002.10 1002.73 1003.46 1004.27 1005.13 1006.02 1006.91 1007.78 1008.63 1009.43 1010.20 1010.94 1011.66 1012.36 1013.04
1014.69 1014.67 1014.80 1015.02 1015.25 1015.43 1015.45 1015.25 1014.77 1013.96 1012.85 1011.46 1009.85 1008.11 1006.31 1004.56 1002.95 1001.54 1000.40 999.53 998.95 998.61 998.48 998.51 998.63 998.80 998.98 999.16 999.34 999.54 999.78 1000.09 1000.50 1001.02 1001.65 1002.38 1003.19 1004.05 1004.94 1005.81 1006.66 1007.48 1008.26 1009.01 1009.73 1010.44 1011.13 1011.81 1012.48
1014.62 1014.65 1014.84 1015.14 1015.47 1015.76 1015.91 1015.86 1015.54 1014.89 1013.94 1012.69 1011.19 1009.53 1007.78 1006.03 1004.39 1002.91 1001.66 1000.65 999.89 999.36 999.03 998.84 998.75 998.72 998.73 998.78 998.87 999.03 999.27 999.62 1000.09 1000.70 1001.41 1002.22 1003.08 1003.96 1004.84 1005.68 1006.48 1007.24 1007.96 1008.65 1009.33 1010.01 1010.69 1011.36 1012.04
1014.87 1014.92 1015.12 1015.43 1015.78 1016.09 1016.31 1016.34 1016.13 1015.63 1014.84 1013.76 1012.44 1010.94 1009.32 1007.68 1006.09 1004.62 1003.33 1002.23 1001.34 1000.65 1000.12 999.71 999.41 999.18 999.01 998.91 998.89 998.97 999.18 999.52 1000.02 1000.66 1001.40 1002.23 1003.08 1003.94 1004.78 1005.56 1006.29 1006.98 1007.64 1008.28 1008.94 1009.61 1010.29 1010.99 1011.67
1015.37 1015.43 1015.60 1015.86 1016.16 1016.43 1016.63 1016.69 1016.55 1016.18 1015.55 1014.67 1013.56 1012.28 1010.87 1009.40 1007.95 1006.57 1005.31 1004.19 1003.23 1002.41 1001.73 1001.14 1000.65 1000.23 999.89 999.63 999.48 999.46 999.59 999.88 1000.34 1000.93 1001.64 1002.41 1003.20 1003.98 1004.72 1005.40 1006.04 1006.64 1007.24 1007.85 1008.49 1009.17 1009.89 1010.62 1011.34
1016.05 1016.09 1016.20 1016.38 1016.58 1016.77 1016.91 1016.95 1016.85 1016.57 1016.09 1015.41 1014.54 1013.50 1012.34 1011.11 1009.85 1008.62 1007.45 1006.37 1005.40 1004.52 1003.73 1003.02 1002.38 1001.80 1001.30 1000.90 1000.61 1000.46 1000.48 1000.67 1001.02 1001.51 1002.09 1002.74 1003.40 1004.03 1004.63 1005.18 1005.70 1006.21 1006.74 1007.31 1007.95 1008.65 1009.41 1010.20 1010.99
Thickness
5667 5669 5669 5663 5649 5643 5649 5664 5679 5687 5694 5704 5710 5712 5714 5717 5719 5722 5749 5763 5766 5766 5766 5765 5764 5764 5764 5764 5764 5763 5762 5761 5760 5759 5757 5756 5755 5754 5752 5750 5749 5747 5745 5744 5742 5740 5738 5736 5735
5657 5658 5653 5644 5634 5631 5643 5660 5670 5680 5689 5695 5701 5706 5709 5714 5726 5733 5743 5753 5758 5760 5760 5759 5759 5759 5759 5759 5759 5759 5758 5757 5756 5755 5754 5753 5752 5750 5749 5747 5746 5744 5742 5740 5738 5736 5735 5733 5731
5646 5645 5635 5628 5626 5631 5642 5658 5664 5673 5681 5685 5687 5695 5700 5707 5718 5725 5736 5744 5749 5751 5752 5753 5753 5754 5754 5754 5754 5754 5753 5753 5752 5751 5750 5749 5748 5747 5745 5744 5742 5740 5739 5737 5735 5733 5731 5729 5728
5632 5625 5619 5615 5623 5632 5641 5649 5654 5658 5666 5673 5675 5679 5691 5705 5711 5719 5729 5735 5738 5741 5744 5745 5747 5747 5748 5748 5748 5749 5749 5748 5748 5747 5746 5745 5744 5743 5742 5740 5738 5737 5735 5733 5731 5729 5728 5726 5725
5616 5607 5602 5603 5612 5624 5633 5639 5643 5645 5651 5659 5662 5665 5677 5695 5704 5711 5716 5722 5726 5730 5734 5737 5739 5741 5742 5743 5743 5743 5744 5744 5743 5743 5742 5741 5740 5739 5738 5736 5734 5733 5731 5729 5727 5726 5724 5723 5721
5596 5592 5587 5592 5602 5615 5621 5627 5630 5632 5639 5646 5650 5654 5667 5683 5691 5698 5704 5709 5715 5719 5724 5727 5731 5733 5735 5737 5737 5738 5738 5738 5738 5738 5738 5737 5736 5735 5734 5732 5730 5729 5727 5725 5723 5722 5720 5719 5717
5581 5577 5578 5582 5590 5599 5610 5615 5616 5618 5624 5631 5638 5642 5657 5669 5678 5685 5692 5697 5702 5708 5713 5718 5721 5724 5727 5729 5731 5732 5733 5733 5733 5733 5733 5732 5732 5731 5730 5728 5726 5725 5723 5721 5720 5718 5717 5715 5714
5573 5566 5568 5570 5579 5588 5597 5601 5605 5607 5612 5623 5628 5630 5642 5658 5666 5672 5679 5684 5690 5696 5702 5707 5712 5715 5718 5722 5723 5725 5727 5728 5728 5728 5728 5727 5726 5726 5725 5723 5722 5720 5719 5717 5716 5714 5713 5711 5710
5565 5553 5554 5562 5570 5578 5586 5587 5593 5598 5603 5610 5616 5624 5636 5646 5654 5657 5663 5670 5677 5684 5690 5697 5703 5706 5710 5713 5716 5717 5720 5721 5722 5722 5722 5722 5721 5720 5719 5719 5718 5716 5714 5713 5712 5710 5709 5708 5706
5551 5544 5553 5563 5567 5569 5574 5576 5581 5585 5590 5598 5604 5615 5624 5631 5638 5643 5650 5657 5665 5672 5680 5686 5692 5697 5701 5705 5708 5710 5712 5714 5716 5717 5717 5717 5716 5715 5715 5713 5713 5711 5710 5708 5707 5706 5705 5704 5703
5545 5545 5552 5558 5560 5561 5563 5568 5572 5574 5581 5589 5593 5602 5611 5619 5625 5632 5640 5648 5655 5663 5671 5677 5682 5688 5692 5696 5700 5702 5705 5707 5709 5711 5711 5711 5711 5710 5709 5708 5707 5706 5705 5704 5703 5702 5701 5700 5699
5542 5546 5548 5552 5554 5553 5555 5559 5562 5567 5578 5583 5586 5593 5600 5607 5615 5621 5629 5638 5646 5652 5660 5667 5672 5678 5683 5688 5692 5695 5698 5701 5703 5705 5706 5706 5706 5705 5705 5704 5703 5702 5701 5700 5699 5697 5697 5696 5695
5537 5540 5544 5545 5546 5547 5549 5552 5554 5562 5571 5574 5577 5581 5588 5597 5605 5613 5620 5628 5635 5642 5650 5657 5663 5668 5675 5679 5684 5688 5692 5695 5698 5699 5700 5702 5702 5701 5701 5700 5699 5698 5697 5696 5694 5693 5692 5692 5691
5535 5535 5536 5538 5540 5542 5543 5548 5547 5559 5562 5564 5567 5572 5579 5586 5594 5601 5609 5617 5625 5633 5640 5647 5654 5659 5665 5669 5675 5681 5684 5688 5691 5694 5695 5697 5698 5698 5697 5696 5695 5694 5693 5692 5691 5689 5688 5687 5687
5531 5527 5529 5533 5534 5536 5536 5541 5545 5553 5552 5555 5559 5565 5571 5578 5583 5590 5598 5607 5616 5623 5630 5637 5644 5650 5656 5661 5668 5674 5678 5682 5685 5688 5690 5692 5693 5693 5693 5692 5690 5689 5688 5687 5685 5684 5683 5683 5682
5522 5518 5516 5527 5531 5532 5526 5533 5546 5547 5546 5548 5553 5558 5563 5569 5575 5582 5589 5598 5606 5612 5619 5628 5635 5641 5648 5655 5661 5666 5671 5675 5679 5682 5684 5687 5688 5688 5688 5687 5685 5684 5683 5682 5681 5680 5678 5678 5677
5509 5505 5509 5518 5526 5525 5521 5528 5542 5542 5542 5544 5547 5551 5556 5561 5567 5573 5580 5589 5597 5603 5611 5619 5626 5632 5639 5646 5653 5658 5663 5669 5673 5675 5678 5681 5682 5683 5684 5683 5681 5679 5678 5677 5676 5675 5674 5673 5672
5503 5504 5509 5512 5520 5520 5519 5524 5536 5539 5541 5541 5543 5547 5552 5558 5562 5569 5576 5583 5590 5596 5604 5611 5618 5624 5630 5637 5643 5649 5654 5661 5665 5669 5672 5675 5677 5677 5678 5678 5676 5675 5673 5672 5671 5670 5669 5668 5666
5509 5507 5507 5513 5520 5518 5519 5525 5533 5536 5538 5539 5541 5545 5549 5553 5560 5566 5571 5577 5585 5591 5597 5604 5610 5616 5622 5628 5634 5640 5646 5652 5659 5663 5666 5669 5672 5672 5672 5672 5671 5671 5669 5668 5667 5665 5663 5661 5659
5509 5506 5505 5512 5519 5519 5519 5524 5531 5533 5534 5536 5538 5542 5545 5550 5557 5563 5568 5574 5579 5585 5592 5599 5604 5611 5616 5623 5629 5635 5640 5646 5652 5655 5658 5662 5666 5667 5667 5667 5667 5666 5664 5662 5661 5660 5657 5655 5654
5510 5505 5505 5509 5516 5518 5516 5520 5527 5530 5533 5536 5538 5540 5543 5549 5553 5557 5563 5569 5574 5580 5588 5596 5600 5605 5610 5617 5622 5626 5631 5638 5643 5647 5652 5656 5659 5661 5661 5661 5661 5660 5660 5658 5657 5656 5652 5649 5647
5507 5514 5514 5514 5507 5504 5509 5507 5520 5523 5529 5533 5534 5536 5540 5546 5550 5554 5559 5565 5570 5575 5582 5588 5593 5599 5604 5610 5615 5621 5627 5632 5637 5643 5646 5648 5651 5652 5653 5654 5655 5654 5653 5653 5651 5650 5648 5644 5641
5511 5517 5515 5514 5508 5504 5507 5505 5512 5519 5523 5527 5530 5532 5537 5543 5548 5552 5557 5563 5567 5571 5576 5582 5587 5594 5599 5604 5610 5615 5619 5625 5629 5634 5637 5640 5643 5645 5646 5646 5646 5646 5646 5646 5645 5642 5640 5638 5636
5516 5514 5513 5510 5504 5502 5509 5508 5511 5512 5516 5521 5526 5529 5533 5540 5546 5550 5555 5560 5563 5567 5573 5578 5583 5588 5593 5599 5604 5608 5613 5618 5621 5626 5629 5632 5634 5635 5637 5638 5638 5638 5638 5638 5637 5635 5633 5631 5630
5512 5502 5495 5495 5493 5503 5514 5512 5512 5513 5518 5520 5523 5526 5531 5537 5542 5546 5550 5555 5559 5564 5569 5575 5580 5584 5588 5594 5598 5602 5607 5611 5615 5619 5622 5625 5626 5626 5628 5629 5630 5630 5630 5630 5629 5627 5625 5623 5622
5511 5504 5495 5496 5495 5502 5511 5510 5510 5514 5517 5519 5521 5523 5528 5532 5536 5541 5545 5550 5555 5559 5564 5570 5574 5579 5584 5588 5591 5595 5600 5605 5607 5611 5614 5616 5617 5619 5619 5620 5621 5621 5622 5622 5620 5618 5617 5615 5614
5512 5504 5504 5496 5494 5496 5503 5509 5514 5518 5516 5516 5518 5521 5523 5527 5531 5535 5540 5544 5549 5554 5559 5564 5569 5574 5578 5583 5586 5590 5594 5598 5600 5603 5606 5608 5609 5609 5610 5610 5611 5612 5612 5613 5612 5610 5608 5607 5605
5514 5509 5500 5499 5500 5501 5505 5505 5507 5510 5512 5514 5516 5517 5520 5523 5527 5531 5534 5538 5543 5548 5553 5559 5564 5568 5572 5576 5580 5583 5586 5590 5593 5596 5598 5599 5600 5600 5601 5601 5602 5602 5602 5602 5601 5600 5599 5598 5597
5511 5509 5505 5499 5500 5499 5499 5506 5512 5510 5511 5512 5513 5514 5516 5519 5522 5526 5529 5533 5538 5542 5547 5552 5557 5561 5565 5569 5572 5575 5578 5582 5586 5588 5589 5589 5590 5590 5592 5592 5592 5592 5591 5590 5589 5588 5588 5587 5586
5514 5512 5507 5503 5499 5495 5495 5503 5514 5510 5510 5511 5511 5513 5514 5516 5517 5520 5523 5527 5531 5534 5539 5544 5548 5552 5557 5561 5565 5567 5570 5573 5575 5577 5578 5579 5580 5582 5583 5583 5582 5581 5580 5580 5579 5579 5578 5577 5576